Weather in Bodaybo

Russia / Irkutsk Oblast     57°51′07″N   114°11′56″E
temp.,
°C
wind,
m/s
gust,
m/s
humid.,
%
clouds,
%
prec.,
mm/h
press.,
hPa
HPBL,
m
28 february, sun
sun2823:00−27sw229472 0.0 103331
02:00−27sw229486 0.1 103423
05:00−28sw2295100 0.0 103645
08:00−29sw2491100 0.0 1038100
11:00−24wsw5979100 0.0 10381456
14:00−22w5976100 0.1 10371550
17:00−22wsw3786100 0.0 1037826
20:00−26ssw2296100 0.1 103824
1 march, mon
mon123:00−26s2397100 0.1 103759
02:00−28s2394100 0.3 103749
05:00−28s2293100 0.0 103627
08:00−27s2296100 0.0 103547
11:00−23sw1488100 0.0 1033519
14:00−21sw2480100 0.1 10301140
17:00−22sse0085100 0.1 102820
20:00−26se2287100 0.1 102823
2 march, tue
tue223:00−28sse2284100 0.0 102619
02:00−30sse1183100 0.0 102519
05:00−30e1184100 0.0 102319
08:00−30ene1188100 0.0 102221
11:00−24ne1186100 0.0 1019319
14:00−22nne1185100 0.0 1016506
17:00−23nne1295100 0.0 1015123
20:00−26e11100100 0.1 101719
3 march, wed
wed323:00−26wsw0199100 0.1 101719
02:00−27wsw11100100 0.2 101719
05:00−27wsw1199100 0.1 101819
08:00−27w1199100 0.2 101924
11:00−24wnw2389100 0.1 1020611
14:00−24nw3486100 0.2 10211003
17:00−25wnw2491100 0.1 1024452
20:00−29wnw1296100 0.1 102819
4 march, thu
thu423:00−33wnw1199100 0.0 103019
02:00−36w11100100 0.1 103219
05:00−38w11100100 0.0 103519
08:00−38wsw1199100 0.0 103819
11:00−31w1191100 0.0 1038294
14:00−27wnw128399 0.0 1038625
17:00−28nnw0090100 0.0 104019
20:00−33s119598 0.0 104319